Showing default

LEMUR 2 VALHALLA, 58900

Orbit data source: Space-Track

LEMUR 2 VALHALLA, 58900 is an American payload satellite in SSO that was launched on Wed, 31 Jan 2024 UTC via an ELECTRON launch vehicle from the Rocket Lab Launch Complex (RLLC). Payloads include a variety of satellites, spacecraft, and rockets equipped with specific instruments for various scientific and technological missions. These include communications satellites like Starlink; space stations such as the ISS; scientific satellites like the Hubble; Earth observation satellites from companies like Planet Labs, Umbra, and HawkEye 360; GPS; miniature CubeSats for education and research; and military/defense satellites.

Loading next visibility...
LEMUR 2 VALHALLA details
Identifier
58900, 2024-022B
Orbit
SSO
Last TLE update1 day ago
Origin
Flag of USSPIRE/NSTAR (US)
ManufacturerSpire/Glasgow
MissionOperational Commercial Early Warn
Bus & MotorCUBESAT 3U, Unknown motor
Mass~25 kg wet, ~25 kg dry
Launch date (UTC)
2024-01-31 (10 months ago)
Launch vehicle
ELECTRON
Launch site
Rocket Lab Launch Complex (RLLC)
Object type
Payload
Rocket body
Debris
Shape & HBRBox + 2 Pan, 1 m
Radar Cross Section0.146 m², Medium (>0.1 m² and < 1m²)

Expand to show TLE details & history

TLE from 1 day ago
0 LEMUR 2 VALHALLA
1 58900U 24022B   24347.54670966  .00013203  00000-0  59573-3 0  9996
2 58900  97.4606 185.6041 0012638 275.2104  84.7689 15.21058298 47905
Epoch: 2024-12-12T13:07Z
Definitive object data (Epoch: 2024-12-12T13:07:15.714Z)
Latitude-0.00006°
Longitude-92.93685°
Altitude504.955 km
Speed7.612 km/s
True Right ascension12h 22m 24s
True Declination0° 00' 00"
Sunlit
Object was in daylight at TLE epoch
Visualization TLE readout
Latitude45.07924°
Longitude-99.32487°
Altitude515.513 km
Speed7.607 km/s
Apparent Right ascension07h 17m 12s
Apparent Declination12° 59' 14"
Sunlit
Object is in daylight
Visualization observer readout
Local Sidereal Time14:40:29
Azimuth293.425° NW
Elevation-6.975°
Doppler factor1
Orbital elements
Apogee altitude508.306 km
Perigee altitude490.922 km
Semi-major axis6,877.751 km
Eccentricity0.0012638
Inclination97.4606°
RAAN185.6041°
Arg. of periapsis275.2104°
True anomaly84.91314°
Mean anomaly84.7689°
Eccentric anomaly84.84102°
Mean motion3.80517 °/min
BSTAR0.00059573
Orbital period94.61 mins
Loading maneuver chart data...
Loading historical data...
Loading historical data...
Loading historical data...
Loading historical data...
Loading historical data...
Loading historical data...
Loading historical data...

LEMUR 2 VALHALLA Visibility forecast

Observer location: undefined°, undefined

Span
Click to sort rows by Start time (UTC) header in descending order
Start Az.
Max El. time (UTC)
Max El. Az.
Max El.
End time (UTC)
End Az.
6 mins2024-12-14 01:59:37.434Z23.71° NE2024-12-14 02:02:37.434Z75.806° E36.451°2024-12-14 02:05:37.434Z171.237° S
4 mins2024-12-14 14:12:37.434Z229.081° WSW2024-12-14 14:14:37.434Z277.403° WNW21.523°2024-12-14 14:16:37.434Z314.138° NW
|